Weather History for Springfield, VT

Change the Weather History Date:

Tuesday, December 24, 2013

  Actual Average Record
Temperature  
Mean Temperature 25 °F 23 °F  
Max Temperature 33 °F 32 °F 48 °F (2003)
Min Temperature 16 °F 14 °F 1 °F (2000)
Degree Days  
Heating Degree Days 40 42  
Month to date heating degree days 944 918  
Since 1 July heating degree days 2644 2561  
Moisture  
Dew Point 12 °F    
Average Humidity 59    
Maximum Humidity 68    
Minimum Humidity 50    
Precipitation  
Precipitation T in 0.12 in 0.86 in (1996)
Month to date precipitation 0.48 2.60  
Year to date precipitation 35.89 43.18  
Sea Level Pressure  
Sea Level Pressure 30.17 in    
Wind  
Wind Speed 8 mph (WNW)    
Max Wind Speed 18 mph    
Max Gust Speed 25 mph    
Visibility 10 miles    
Events      
T = Trace of Precipitation, MM = Missing Value Source: NWS Daily Summary

Daily Weather History Graph

Daily Weather History Graph

Search for Another Location

Airport:

Trip Planner

Search our weather history database for the weather conditions in past years. The results will help you decide how hot, cold, wet, or windy it might be!

Date:

Astronomy

Dec. 24, 2013 Rise Set
Actual Time 7:20 AM EST 4:18 PM EST
Civil Twilight 6:48 AM EST 4:51 PM EST
Nautical Twilight 6:12 AM EST 5:27 PM EST
Astronomical Twilight 5:37 AM EST 6:02 PM EST
Moon 11:36 PM EST (12/24) 11:02 AM EST (12/24)
Length of Visible Light 10h 03m
Length of Day
8h 58m
Waning Gibbous, 59% of the Moon is Illuminated
Dec 24
Waning Gibbous
Dec 25
Last Quarter
Jan 1
New
Jan 7
First Quarter
Jan 15
Full

Hourly Weather History & Observations

Time (EST) Temp. Windchill Dew Point Humidity Pressure Visibility Wind Dir Wind Speed Gust Speed Precip Events Conditions
12:54 AM 32.0 °F 23.0 °F 21.9 °F 66% 30.14 in 10.0 mi West 11.5 mph - N/A   Partly Cloudy
1:54 AM 30.9 °F 23.5 °F 19.0 °F 61% 30.16 in 10.0 mi WNW 8.1 mph - N/A   Clear
2:54 AM 30.0 °F 22.4 °F 17.1 °F 59% 30.17 in 10.0 mi NW 8.1 mph - N/A   Clear
3:54 AM 28.9 °F 21.9 °F 17.1 °F 61% 30.16 in 10.0 mi WNW 6.9 mph - N/A   Clear
4:54 AM 27.0 °F 15.6 °F 12.9 °F 56% 30.17 in 10.0 mi WNW 13.8 mph 21.9 mph N/A   Clear
5:54 AM 26.1 °F 14.5 °F 10.9 °F 53% 30.16 in 10.0 mi WNW 13.8 mph 25.3 mph N/A   Clear
6:54 AM 25.0 °F - 10.9 °F 55% 30.17 in 10.0 mi North - - N/A   Clear
7:54 AM 24.1 °F 15.2 °F 10.0 °F 55% 30.17 in 10.0 mi NW 8.1 mph - N/A   Clear
8:54 AM 23.0 °F 18.4 °F 12.0 °F 63% 30.16 in 10.0 mi West 3.5 mph - N/A   Clear
9:54 AM 26.1 °F 19.4 °F 10.9 °F 53% 30.18 in 10.0 mi NW 5.8 mph - N/A   Clear
10:54 AM 26.1 °F 21.9 °F 12.9 °F 58% 30.15 in 10.0 mi Variable 3.5 mph - N/A   Clear
11:54 AM 27.0 °F 18.0 °F 14.0 °F 58% 30.13 in 10.0 mi West 9.2 mph - N/A   Clear
12:54 PM 28.0 °F 24.2 °F 14.0 °F 56% 30.10 in 10.0 mi WSW 3.5 mph - N/A   Clear
1:54 PM 28.9 °F 18.6 °F 12.0 °F 49% 30.09 in 10.0 mi West 12.7 mph - N/A   Scattered Clouds
2:54 PM 27.0 °F 17.3 °F 12.0 °F 53% 30.11 in 10.0 mi West 10.4 mph 19.6 mph N/A   Overcast
3:54 PM 26.1 °F 19.4 °F 12.0 °F 55% 30.13 in 10.0 mi NW 5.8 mph - N/A   Overcast
4:54 PM 26.1 °F 19.4 °F 12.9 °F 58% 30.15 in 10.0 mi NNW 5.8 mph - N/A   Overcast
5:54 PM 25.0 °F 17.1 °F 14.0 °F 63% 30.16 in 10.0 mi WNW 6.9 mph - N/A   Mostly Cloudy
6:54 PM 21.9 °F 12.5 °F 12.9 °F 68% 30.19 in 10.0 mi NW 8.1 mph - N/A   Clear
7:54 PM 21.0 °F 14.6 °F 10.9 °F 65% 30.21 in 10.0 mi NNW 4.6 mph - N/A   Clear
8:54 PM 19.0 °F 13.9 °F 10.9 °F 71% 30.22 in 10.0 mi Variable 3.5 mph - N/A   Mostly Cloudy
9:43 PM 19.0 °F 11.1 °F 10.0 °F 68% 30.19 in 10.0 mi West 5.8 mph - N/A   Mostly Cloudy
9:54 PM 19.0 °F 11.1 °F 10.0 °F 68% 30.23 in 10.0 mi Variable 5.8 mph - N/A   Overcast
10:52 PM 17.6 °F 3.7 °F 6.8 °F 63% 30.22 in 10.0 mi NW 13.8 mph 19.6 mph 0.00 in   Mostly Cloudy
10:54 PM 17.1 °F 3.6 °F 7.0 °F 65% 30.25 in 10.0 mi NW 12.7 mph 21.9 mph 0.00 in   Mostly Cloudy
11:54 PM 16.0 °F 3.6 °F 6.1 °F 65% 30.27 in 10.0 mi WNW 10.4 mph 23.0 mph N/A   Overcast